Time,TemperatureF,DewpointF,PressureIn,WindDirection,WindDirectionDegrees,WindSpeedMPH,WindSpeedGustMPH,Humidity,HourlyPrecipIn,Conditions,Clouds,dailyrainin,SoftwareType,DateUTC
2013-07-18 00:02:00,62.4,55.8,30.14,NNW,328,3.5,3.5,79,0.00,CLR,,0.00,WeatherDisplay:10.37,2013-07-18 07:02:00,
2013-07-18 00:07:00,62.2,55.6,30.14,North,352,4.6,4.6,79,0.00,CLR,,0.00,WeatherDisplay:10.37,2013-07-18 07:07:00,
2013-07-18 00:12:00,62.1,55.5,30.15,NW,305,3.5,3.5,79,0.00,CLR,,0.00,WeatherDisplay:10.37,2013-07-18 07:12:00,
2013-07-18 00:17:00,62.0,55.4,30.15,NW,319,4.6,4.6,79,0.00,CLR,,0.00,WeatherDisplay:10.37,2013-07-18 07:17:00,
2013-07-18 00:22:00,61.8,55.2,30.15,NNE,25,3.5,3.5,79,0.00,CLR,,0.00,WeatherDisplay:10.37,2013-07-18 07:22:00,
2013-07-18 00:27:00,61.7,55.5,30.15,North,356,2.3,2.3,80,0.00,CLR,,0.00,WeatherDisplay:10.37,2013-07-18 07:27:00,
2013-07-18 00:32:00,61.5,55.3,30.15,ENE,57,4.6,4.6,80,0.00,CLR,,0.00,WeatherDisplay:10.37,2013-07-18 07:32:00,
2013-07-18 00:37:00,61.4,55.2,30.15,WNW,291,5.8,5.8,80,0.00,CLR,,0.00,WeatherDisplay:10.37,2013-07-18 07:37:00,
2013-07-18 00:42:00,61.3,55.1,30.15,NNW,344,1.0,0.0,80,0.00,CLR,,0.00,WeatherDisplay:10.37,2013-07-18 07:42:00,
2013-07-18 00:47:00,61.1,55.2,30.15,North,356,1.2,1.2,81,0.00,CLR,,0.00,WeatherDisplay:10.37,2013-07-18 07:47:00,
2013-07-18 00:52:00,61.0,55.1,30.15,North,349,4.0,4.0,81,0.00,CLR,,0.00,WeatherDisplay:10.37,2013-07-18 07:52:00,
2013-07-18 00:57:00,60.8,54.9,30.15,NW,319,1.2,1.2,81,0.00,CLR,,0.00,WeatherDisplay:10.37,2013-07-18 07:57:00,
2013-07-18 01:02:00,60.7,54.8,30.15,NNE,32,1.2,1.2,81,0.00,CLR,,0.00,WeatherDisplay:10.37,2013-07-18 08:02:00,
2013-07-18 01:07:00,60.6,55.1,30.15,NNE,26,2.3,2.3,82,0.00,CLR,,0.00,WeatherDisplay:10.37,2013-07-18 08:07:00,
2013-07-18 01:12:00,60.5,55.0,30.15,NNE,30,1.2,1.2,82,0.00,CLR,,0.00,WeatherDisplay:10.37,2013-07-18 08:12:00,
2013-07-18 01:17:00,60.4,54.9,30.15,North,9,1.2,1.2,82,0.00,CLR,,0.00,WeatherDisplay:10.37,2013-07-18 08:17:00,
2013-07-18 01:22:00,60.3,54.8,30.15,West,277,3.5,3.5,82,0.00,CLR,,0.00,WeatherDisplay:10.37,2013-07-18 08:22:00,
2013-07-18 01:27:00,60.3,54.8,30.15,NNE,25,3.5,3.5,82,0.00,CLR,,0.00,WeatherDisplay:10.37,2013-07-18 08:27:00,
2013-07-18 01:32:00,60.1,54.6,30.15,WNW,291,4.6,4.6,82,0.00,CLR,,0.00,WeatherDisplay:10.37,2013-07-18 08:32:00,
2013-07-18 01:37:00,60.0,54.5,30.15,North,360,5.8,5.8,82,0.00,CLR,,0.00,WeatherDisplay:10.37,2013-07-18 08:37:00,
2013-07-18 01:42:00,60.0,54.5,30.15,NNW,345,2.3,2.3,82,0.00,CLR,,0.00,WeatherDisplay:10.37,2013-07-18 08:42:00,
2013-07-18 01:47:00,59.8,54.3,30.15,East,79,2.3,2.3,82,0.00,CLR,,0.00,WeatherDisplay:10.37,2013-07-18 08:47:00,
2013-07-18 01:52:00,59.7,54.5,30.15,NW,323,1.2,1.2,83,0.00,CLR,,0.00,WeatherDisplay:10.37,2013-07-18 08:52:00,
2013-07-18 01:57:00,59.6,54.4,30.15,NNE,27,2.0,2.0,83,0.00,CLR,,0.00,WeatherDisplay:10.37,2013-07-18 08:57:00,
2013-07-18 02:02:00,59.5,54.3,30.15,NW,316,3.5,3.5,83,0.00,CLR,,0.00,WeatherDisplay:10.37,2013-07-18 09:02:00,
2013-07-18 02:07:00,59.3,54.1,30.15,NNW,347,4.6,4.6,83,0.00,CLR,,0.00,WeatherDisplay:10.37,2013-07-18 09:07:00,
2013-07-18 02:12:00,59.2,54.0,30.15,NNE,30,2.3,2.3,83,0.00,CLR,,0.00,WeatherDisplay:10.37,2013-07-18 09:12:00,
2013-07-18 02:17:00,59.1,53.9,30.15,West,271,3.5,3.5,83,0.00,CLR,,0.00,WeatherDisplay:10.37,2013-07-18 09:17:00,
2013-07-18 02:22:00,59.0,54.2,30.15,NNW,337,4.0,4.0,84,0.00,CLR,,0.00,WeatherDisplay:10.37,2013-07-18 09:22:00,
2013-07-18 02:27:00,58.9,54.1,30.15,NNE,27,2.3,2.3,84,0.00,CLR,,0.00,WeatherDisplay:10.37,2013-07-18 09:27:00,
2013-07-18 02:32:00,58.8,54.0,30.15,NNW,339,0.0,0.1,84,0.00,CLR,,0.00,WeatherDisplay:10.37,2013-07-18 09:32:00,
2013-07-18 02:37:00,58.7,53.9,30.15,NNE,16,3.5,0.0,84,0.00,CLR,,0.00,WeatherDisplay:10.37,2013-07-18 09:37:00,
2013-07-18 02:42:00,58.6,53.8,30.15,NW,305,1.2,1.2,84,0.00,CLR,,0.00,WeatherDisplay:10.37,2013-07-18 09:42:00,
2013-07-18 02:47:00,58.5,54.0,30.15,North,357,2.3,2.3,85,0.00,CLR,,0.00,WeatherDisplay:10.37,2013-07-18 09:47:00,
2013-07-18 02:52:00,58.4,53.9,30.15,WSW,255,1.2,1.2,85,0.00,CLR,,0.00,WeatherDisplay:10.37,2013-07-18 09:52:00,
2013-07-18 02:57:00,58.4,53.9,30.15,NE,48,1.2,0.0,85,0.00,CLR,,0.00,WeatherDisplay:10.37,2013-07-18 09:57:00,
2013-07-18 03:02:00,58.2,53.7,30.15,NNE,19,1.2,0.0,85,0.00,CLR,,0.00,WeatherDisplay:10.37,2013-07-18 10:02:00,
2013-07-18 03:07:00,58.2,53.7,30.15,North,11,0.0,0.0,85,0.00,CLR,,0.00,WeatherDisplay:10.37,2013-07-18 10:07:00,
2013-07-18 03:12:00,58.0,53.8,30.15,ESE,108,2.3,0.0,86,0.00,CLR,,0.00,WeatherDisplay:10.37,2013-07-18 10:12:00,
2013-07-18 03:17:00,57.9,53.7,30.15,West,280,1.2,1.2,86,0.00,CLR,,0.00,WeatherDisplay:10.37,2013-07-18 10:17:00,
2013-07-18 03:22:00,57.7,53.5,30.15,North,352,0.0,0.0,86,0.00,CLR,,0.00,WeatherDisplay:10.37,2013-07-18 10:22:00,
2013-07-18 03:27:00,57.6,53.8,30.15,NNW,342,2.3,2.3,87,0.00,CLR,,0.00,WeatherDisplay:10.37,2013-07-18 10:27:00,
2013-07-18 03:32:00,57.7,53.9,30.15,NW,322,4.6,4.6,87,0.00,CLR,,0.00,WeatherDisplay:10.37,2013-07-18 10:32:00,
2013-07-18 03:37:00,57.7,53.9,30.15,NW,325,2.3,2.3,87,0.00,CLR,,0.00,WeatherDisplay:10.37,2013-07-18 10:37:00,
2013-07-18 03:42:00,57.7,53.9,30.15,North,358,1.2,1.2,87,0.00,CLR,,0.00,WeatherDisplay:10.37,2013-07-18 10:42:00,
2013-07-18 03:47:00,57.6,53.8,30.15,NNW,335,0.0,0.0,87,0.00,CLR,,0.00,WeatherDisplay:10.37,2013-07-18 10:47:00,
2013-07-18 03:52:00,57.5,53.7,30.15,NNW,341,0.0,0.0,87,0.00,CLR,,0.00,WeatherDisplay:10.37,2013-07-18 10:52:00,
2013-07-18 03:57:00,57.4,53.6,30.15,NW,315,1.2,1.2,87,0.00,CLR,,0.00,WeatherDisplay:10.37,2013-07-18 10:57:00,
2013-07-18 04:02:00,57.3,53.5,30.15,North,356,3.5,3.5,87,0.00,CLR,,0.00,WeatherDisplay:10.37,2013-07-18 11:02:00,
2013-07-18 04:07:00,57.3,53.5,30.15,NNW,333,1.2,1.2,87,0.00,CLR,,0.00,WeatherDisplay:10.37,2013-07-18 11:07:00,
2013-07-18 04:12:00,57.2,53.7,30.15,North,354,3.5,3.5,88,0.00,CLR,,0.00,WeatherDisplay:10.37,2013-07-18 11:12:00,
2013-07-18 04:17:00,57.2,53.7,30.15,NNW,335,3.5,3.5,88,0.00,CLR,,0.00,WeatherDisplay:10.37,2013-07-18 11:17:00,
2013-07-18 04:22:00,57.2,53.7,30.15,NNW,327,4.6,4.6,88,0.00,CLR,,0.00,WeatherDisplay:10.37,2013-07-18 11:22:00,
2013-07-18 04:27:00,57.3,53.8,30.15,NW,314,5.8,5.8,88,0.00,CLR,,0.00,WeatherDisplay:10.37,2013-07-18 11:27:00,
2013-07-18 04:32:00,57.2,53.4,30.15,WNW,296,2.3,2.3,87,0.00,CLR,,0.00,WeatherDisplay:10.37,2013-07-18 11:32:00,
2013-07-18 04:37:00,57.2,53.4,30.15,NW,315,3.5,3.5,87,0.00,CLR,,0.00,WeatherDisplay:10.37,2013-07-18 11:37:00,
2013-07-18 04:42:00,57.2,53.4,30.15,NNW,335,2.3,2.3,87,0.00,CLR,,0.00,WeatherDisplay:10.37,2013-07-18 11:42:00,
2013-07-18 04:47:00,57.2,53.7,30.15,NNE,23,2.3,2.3,88,0.00,CLR,,0.00,WeatherDisplay:10.37,2013-07-18 11:47:00,
2013-07-18 04:52:00,57.1,53.6,30.15,NNE,16,2.3,2.3,88,0.00,CLR,,0.00,WeatherDisplay:10.37,2013-07-18 11:52:00,
2013-07-18 04:57:00,57.0,53.5,30.16,North,5,2.3,2.3,88,0.00,CLR,,0.00,WeatherDisplay:10.37,2013-07-18 11:57:00,
2013-07-18 05:02:00,57.0,53.5,30.16,NNW,329,0.0,0.0,88,0.00,CLR,,0.00,WeatherDisplay:10.37,2013-07-18 12:02:00,
2013-07-18 05:07:00,56.9,53.4,30.15,NNE,29,2.3,2.3,88,0.00,CLR,,0.00,WeatherDisplay:10.37,2013-07-18 12:07:00,
2013-07-18 05:12:00,56.9,53.4,30.16,NW,312,1.2,0.0,88,0.00,CLR,,0.00,WeatherDisplay:10.37,2013-07-18 12:12:00,
2013-07-18 05:17:00,56.8,53.3,30.16,NNW,343,3.5,3.5,88,0.00,CLR,,0.00,WeatherDisplay:10.37,2013-07-18 12:17:00,
2013-07-18 05:22:00,56.7,53.2,30.16,NNE,25,2.0,2.0,88,0.00,CLR,,0.00,WeatherDisplay:10.37,2013-07-18 12:22:00,
2013-07-18 05:28:00,56.7,53.2,30.16,NE,39,1.2,0.0,88,0.00,CLR,,0.00,WeatherDisplay:10.37,2013-07-18 12:28:00,
2013-07-18 05:33:00,56.7,53.2,30.16,NE,47,1.2,0.0,88,0.00,CLR,,0.00,WeatherDisplay:10.37,2013-07-18 12:33:00,
2013-07-18 05:38:00,56.6,53.4,30.16,North,354,2.3,2.3,89,0.00,CLR,,0.00,WeatherDisplay:10.37,2013-07-18 12:38:00,
2013-07-18 05:43:00,56.5,53.3,30.16,North,11,0.0,0.0,89,0.00,CLR,,0.00,WeatherDisplay:10.37,2013-07-18 12:43:00,
2013-07-18 05:48:00,56.4,53.2,30.16,NE,36,1.2,1.2,89,0.00,CLR,,0.00,WeatherDisplay:10.37,2013-07-18 12:48:00,
2013-07-18 05:53:00,56.4,53.2,30.16,NE,41,1.2,1.2,89,0.00,CLR,,0.00,WeatherDisplay:10.37,2013-07-18 12:53:00,
2013-07-18 05:58:00,56.5,53.3,30.16,NE,51,1.2,1.2,89,0.00,CLR,,0.00,WeatherDisplay:10.37,2013-07-18 12:58:00,
2013-07-18 06:03:00,56.7,53.2,30.16,NNE,13,1.2,1.2,88,0.00,CLR,,0.00,WeatherDisplay:10.37,2013-07-18 13:03:00,
2013-07-18 06:08:00,57.0,53.2,30.17,NE,34,3.5,3.5,87,0.00,CLR,,0.00,WeatherDisplay:10.37,2013-07-18 13:08:00,
2013-07-18 06:13:00,57.5,53.7,30.17,North,9,0.0,0.0,87,0.00,CLR,,0.00,WeatherDisplay:10.37,2013-07-18 13:13:00,
2013-07-18 06:18:00,57.8,53.6,30.17,NW,315,1.2,1.2,86,0.00,CLR,,0.00,WeatherDisplay:10.37,2013-07-18 13:18:00,
2013-07-18 06:23:00,58.1,53.6,30.17,NNE,16,2.3,2.3,85,0.00,CLR,,0.00,WeatherDisplay:10.37,2013-07-18 13:23:00,
2013-07-18 06:28:00,58.5,53.7,30.17,NE,54,1.2,1.2,84,0.00,CLR,,0.00,WeatherDisplay:10.37,2013-07-18 13:28:00,
2013-07-18 06:33:00,58.9,54.1,30.17,NE,38,2.3,2.3,84,0.00,CLR,,0.00,WeatherDisplay:10.37,2013-07-18 13:33:00,
2013-07-18 06:38:00,59.1,53.9,30.17,NNE,17,2.3,2.3,83,0.00,CLR,,0.00,WeatherDisplay:10.37,2013-07-18 13:38:00,
2013-07-18 06:43:00,59.3,54.1,30.17,NW,316,3.5,3.5,83,0.00,CLR,,0.00,WeatherDisplay:10.37,2013-07-18 13:43:00,
2013-07-18 06:48:00,59.3,54.1,30.17,NNE,20,2.3,0.0,83,0.00,CLR,,0.00,WeatherDisplay:10.37,2013-07-18 13:48:00,
2013-07-18 06:53:00,59.7,54.2,30.17,NW,315,1.2,1.2,82,0.00,CLR,,0.00,WeatherDisplay:10.37,2013-07-18 13:53:00,
2013-07-18 06:58:00,59.9,54.1,30.17,NNW,330,3.5,3.5,81,0.00,CLR,,0.00,WeatherDisplay:10.37,2013-07-18 13:58:00,
2013-07-18 07:03:00,60.0,54.2,30.17,NNE,32,1.2,1.2,81,0.00,CLR,,0.00,WeatherDisplay:10.37,2013-07-18 14:03:00,
2013-07-18 07:08:00,60.0,54.2,30.17,NE,37,2.3,2.3,81,0.00,CLR,,0.00,WeatherDisplay:10.37,2013-07-18 14:08:00,
2013-07-18 07:13:00,60.0,54.2,30.17,NW,316,3.5,3.5,81,0.00,CLR,,0.00,WeatherDisplay:10.37,2013-07-18 14:13:00,
2013-07-18 07:18:00,60.5,54.3,30.17,NNW,337,3.5,3.5,80,0.00,CLR,,0.00,WeatherDisplay:10.37,2013-07-18 14:18:00,
2013-07-18 07:23:00,60.8,54.2,30.17,North,11,3.5,3.5,79,0.00,CLR,,0.00,WeatherDisplay:10.37,2013-07-18 14:23:00,
2013-07-18 07:28:00,60.8,54.2,30.17,NNE,20,3.5,3.5,79,0.00,CLR,,0.00,WeatherDisplay:10.37,2013-07-18 14:28:00,
2013-07-18 07:33:00,61.0,54.1,30.17,NNW,335,5.8,5.8,78,0.00,CLR,,0.00,WeatherDisplay:10.37,2013-07-18 14:33:00,
2013-07-18 07:38:00,60.9,54.0,30.17,NNE,27,6.9,6.9,78,0.00,CLR,,0.00,WeatherDisplay:10.37,2013-07-18 14:38:00,
2013-07-18 07:43:00,60.6,54.0,30.17,NNE,25,5.0,5.0,79,0.00,CLR,,0.00,WeatherDisplay:10.37,2013-07-18 14:43:00,
2013-07-18 07:48:00,59.9,53.7,30.17,NE,41,7.0,7.0,80,0.00,CLR,,0.00,WeatherDisplay:10.37,2013-07-18 14:48:00,
2013-07-18 07:53:00,59.6,53.8,30.17,NNW,342,5.8,5.8,81,0.00,CLR,,0.00,WeatherDisplay:10.37,2013-07-18 14:53:00,
2013-07-18 07:58:00,59.5,54.0,30.17,NW,315,3.5,3.5,82,0.00,CLR,,0.00,WeatherDisplay:10.37,2013-07-18 14:58:00,
2013-07-18 08:03:00,59.6,54.1,30.17,West,274,3.5,3.5,82,0.00,CLR,,0.00,WeatherDisplay:10.37,2013-07-18 15:03:00,
2013-07-18 08:08:00,59.7,53.9,30.18,NNW,327,4.6,4.6,81,0.00,CLR,,0.00,WeatherDisplay:10.37,2013-07-18 15:08:00,
2013-07-18 08:13:00,59.7,54.2,30.17,North,5,3.5,3.5,82,0.00,CLR,,0.00,WeatherDisplay:10.37,2013-07-18 15:13:00,
2013-07-18 08:18:00,59.7,53.9,30.18,NE,53,3.5,3.5,81,0.00,CLR,,0.00,WeatherDisplay:10.37,2013-07-18 15:18:00,
2013-07-18 08:23:00,59.8,54.0,30.17,NW,313,4.6,4.6,81,0.00,CLR,,0.00,WeatherDisplay:10.37,2013-07-18 15:23:00,
2013-07-18 08:28:00,60.0,54.2,30.18,West,260,3.5,3.5,81,0.00,CLR,,0.00,WeatherDisplay:10.37,2013-07-18 15:28:00,
2013-07-18 08:33:00,60.3,54.4,30.17,ESE,114,4.0,4.0,81,0.00,CLR,,0.00,WeatherDisplay:10.37,2013-07-18 15:33:00,
2013-07-18 08:38:00,60.4,54.2,30.17,ENE,71,2.3,2.3,80,0.00,CLR,,0.00,WeatherDisplay:10.37,2013-07-18 15:38:00,
2013-07-18 08:43:00,60.5,54.3,30.17,East,92,2.3,0.0,80,0.00,CLR,,0.00,WeatherDisplay:10.37,2013-07-18 15:43:00,
2013-07-18 08:48:00,60.5,54.3,30.17,WNW,289,6.9,6.9,80,0.00,CLR,,0.00,WeatherDisplay:10.37,2013-07-18 15:48:00,
2013-07-18 08:53:00,60.5,54.3,30.18,NW,312,5.0,5.0,80,0.00,CLR,,0.00,WeatherDisplay:10.37,2013-07-18 15:53:00,
2013-07-18 08:58:00,60.5,54.3,30.18,NW,316,3.5,3.5,80,0.00,CLR,,0.00,WeatherDisplay:10.37,2013-07-18 15:58:00,
2013-07-18 09:03:00,60.9,54.7,30.17,NW,323,4.6,4.6,80,0.00,CLR,,0.00,WeatherDisplay:10.37,2013-07-18 16:03:00,
2013-07-18 09:08:00,61.2,54.6,30.17,WNW,285,2.3,2.3,79,0.00,CLR,,0.00,WeatherDisplay:10.37,2013-07-18 16:08:00,
2013-07-18 09:13:00,61.4,54.5,30.17,North,350,4.6,4.6,78,0.00,CLR,,0.00,WeatherDisplay:10.37,2013-07-18 16:13:00,
2013-07-18 09:18:00,61.7,54.4,30.17,NNE,16,7.0,7.0,77,0.00,CLR,,0.00,WeatherDisplay:10.37,2013-07-18 16:18:00,
2013-07-18 09:23:00,61.3,54.4,30.17,West,263,9.2,9.2,78,0.00,CLR,,0.00,WeatherDisplay:10.37,2013-07-18 16:23:00,
2013-07-18 09:28:00,62.0,54.3,30.17,North,9,5.8,5.8,76,0.00,CLR,,0.00,WeatherDisplay:10.37,2013-07-18 16:28:00,
2013-07-18 09:33:00,62.1,54.4,30.17,NE,42,4.0,4.0,76,0.00,CLR,,0.00,WeatherDisplay:10.37,2013-07-18 16:33:00,
2013-07-18 09:38:00,62.3,54.6,30.17,North,8,4.0,4.0,76,0.00,CLR,,0.00,WeatherDisplay:10.37,2013-07-18 16:38:00,
2013-07-18 09:43:00,62.8,54.8,30.17,NNW,338,4.6,4.6,75,0.00,CLR,,0.00,WeatherDisplay:10.37,2013-07-18 16:43:00,
2013-07-18 09:48:00,63.4,55.0,30.17,North,350,2.3,2.3,74,0.00,CLR,,0.00,WeatherDisplay:10.37,2013-07-18 16:48:00,
2013-07-18 09:53:00,63.0,54.6,30.17,WSW,242,4.6,4.6,74,0.00,CLR,,0.00,WeatherDisplay:10.37,2013-07-18 16:53:00,
2013-07-18 09:58:00,63.4,55.0,30.17,NNW,329,6.9,6.9,74,0.00,CLR,,0.00,WeatherDisplay:10.37,2013-07-18 16:58:00,
2013-07-18 10:03:00,63.6,54.8,30.17,NW,325,3.5,3.5,73,0.00,CLR,,0.00,WeatherDisplay:10.37,2013-07-18 17:03:00,
2013-07-18 10:04:00,63.6,54.8,30.17,NW,310,3.5,3.5,73,0.00,CLR,,0.00,WeatherDisplay:10.37,2013-07-18 17:04:00,
2013-07-18 10:09:00,63.5,54.7,30.17,West,263,1.2,1.2,73,0.00,CLR,,0.00,WeatherDisplay:10.37,2013-07-18 17:09:00,
2013-07-18 10:14:00,63.8,54.6,30.16,NW,312,5.8,5.8,72,0.00,CLR,,0.00,WeatherDisplay:10.37,2013-07-18 17:14:00,
2013-07-18 10:19:00,63.9,54.7,30.17,SW,218,3.5,3.5,72,0.00,CLR,,0.00,WeatherDisplay:10.37,2013-07-18 17:19:00,
2013-07-18 10:24:00,64.3,54.7,30.16,NW,312,3.5,3.5,71,0.00,CLR,,0.00,WeatherDisplay:10.37,2013-07-18 17:24:00,
2013-07-18 10:29:00,64.6,54.6,30.16,NW,305,3.5,3.5,70,0.00,CLR,,0.00,WeatherDisplay:10.37,2013-07-18 17:29:00,
2013-07-18 10:34:00,64.7,54.7,30.16,NE,46,5.8,5.8,70,0.00,CLR,,0.00,WeatherDisplay:10.37,2013-07-18 17:34:00,
2013-07-18 10:39:00,64.8,54.4,30.16,NNE,23,5.8,5.8,69,0.00,CLR,,0.00,WeatherDisplay:10.37,2013-07-18 17:39:00,
2013-07-18 10:44:00,65.1,55.1,30.16,SW,228,4.6,4.6,70,0.00,CLR,,0.00,WeatherDisplay:10.37,2013-07-18 17:44:00,
2013-07-18 10:49:00,65.4,55.0,30.16,North,352,8.1,8.1,69,0.00,CLR,,0.00,WeatherDisplay:10.37,2013-07-18 17:49:00,
2013-07-18 10:54:00,65.9,55.0,30.16,NW,322,3.5,3.5,68,0.00,CLR,,0.00,WeatherDisplay:10.37,2013-07-18 17:54:00,
2013-07-18 10:59:00,66.2,54.9,30.16,NE,36,5.0,5.0,67,0.00,CLR,,0.00,WeatherDisplay:10.37,2013-07-18 17:59:00,
2013-07-18 11:04:00,66.2,54.9,30.15,NE,43,1.2,1.2,67,0.00,CLR,,0.00,WeatherDisplay:10.37,2013-07-18 18:04:00,
2013-07-18 11:09:00,66.4,54.7,30.15,NW,312,5.8,5.8,66,0.00,CLR,,0.00,WeatherDisplay:10.37,2013-07-18 18:09:00,
2013-07-18 11:14:00,66.4,55.1,30.15,WSW,252,4.6,4.6,67,0.00,CLR,,0.00,WeatherDisplay:10.37,2013-07-18 18:14:00,
2013-07-18 11:19:00,66.9,55.6,30.15,NNE,24,7.0,7.0,67,0.00,CLR,,0.00,WeatherDisplay:10.37,2013-07-18 18:19:00,
2013-07-18 11:24:00,67.1,54.9,30.15,NNW,346,3.5,3.5,65,0.00,CLR,,0.00,WeatherDisplay:10.37,2013-07-18 18:24:00,
2013-07-18 11:29:00,67.3,55.1,30.15,NNE,18,5.8,5.8,65,0.00,CLR,,0.00,WeatherDisplay:10.37,2013-07-18 18:29:00,
2013-07-18 11:34:00,68.0,55.8,30.15,NNW,330,5.8,5.8,65,0.00,CLR,,0.00,WeatherDisplay:10.37,2013-07-18 18:34:00,
2013-07-18 11:39:00,68.3,55.6,30.15,SW,225,2.3,2.3,64,0.00,CLR,,0.00,WeatherDisplay:10.37,2013-07-18 18:39:00,
2013-07-18 11:44:00,68.8,56.1,30.15,ENE,57,5.8,5.8,64,0.00,CLR,,0.00,WeatherDisplay:10.37,2013-07-18 18:44:00,
2013-07-18 11:49:00,68.4,55.3,30.15,North,352,8.1,8.1,63,0.00,CLR,,0.00,WeatherDisplay:10.37,2013-07-18 18:49:00,
2013-07-18 11:54:00,68.9,55.8,30.15,North,5,5.8,5.8,63,0.00,CLR,,0.00,WeatherDisplay:10.37,2013-07-18 18:54:00,
2013-07-18 11:59:00,69.5,55.9,30.15,NE,37,5.8,5.8,62,0.00,CLR,,0.00,WeatherDisplay:10.37,2013-07-18 18:59:00,
2013-07-18 12:04:00,69.3,55.7,30.15,West,278,3.5,3.5,62,0.00,CLR,,0.00,WeatherDisplay:10.37,2013-07-18 19:04:00,
2013-07-18 12:09:00,69.6,56.0,30.15,WNW,286,6.9,6.9,62,0.00,CLR,,0.00,WeatherDisplay:10.37,2013-07-18 19:09:00,
2013-07-18 12:14:00,69.9,56.3,30.15,West,270,3.5,3.5,62,0.00,CLR,,0.00,WeatherDisplay:10.37,2013-07-18 19:14:00,
2013-07-18 12:19:00,70.3,56.2,30.15,WSW,245,3.5,3.5,61,0.00,CLR,,0.00,WeatherDisplay:10.37,2013-07-18 19:19:00,
2013-07-18 12:24:00,70.4,56.3,30.14,WNW,294,5.8,5.8,61,0.00,CLR,,0.00,WeatherDisplay:10.37,2013-07-18 19:24:00,
2013-07-18 12:29:00,70.3,56.2,30.14,North,354,6.0,6.0,61,0.00,CLR,,0.00,WeatherDisplay:10.37,2013-07-18 19:29:00,
2013-07-18 12:34:00,70.7,56.1,30.14,NNE,26,3.5,3.5,60,0.00,CLR,,0.00,WeatherDisplay:10.37,2013-07-18 19:34:00,
2013-07-18 12:39:00,71.2,56.6,30.14,NNE,26,3.5,3.5,60,0.00,CLR,,0.00,WeatherDisplay:10.37,2013-07-18 19:39:00,
2013-07-18 12:44:00,71.8,56.7,30.14,West,269,3.5,3.5,59,0.00,CLR,,0.00,WeatherDisplay:10.37,2013-07-18 19:44:00,
2013-07-18 12:49:00,72.3,56.7,30.13,NNE,13,4.6,4.6,58,0.00,CLR,,0.00,WeatherDisplay:10.37,2013-07-18 19:49:00,
2013-07-18 12:54:00,72.3,56.7,30.13,North,356,6.9,6.9,58,0.00,CLR,,0.00,WeatherDisplay:10.37,2013-07-18 19:54:00,
2013-07-18 12:59:00,72.3,56.7,30.13,NW,309,3.5,3.5,58,0.00,CLR,,0.00,WeatherDisplay:10.37,2013-07-18 19:59:00,
2013-07-18 13:04:00,72.9,57.3,30.13,NNW,333,3.0,3.0,58,0.00,CLR,,0.00,WeatherDisplay:10.37,2013-07-18 20:04:00,
2013-07-18 13:09:00,72.5,56.9,30.13,SW,236,6.9,6.9,58,0.00,CLR,,0.00,WeatherDisplay:10.37,2013-07-18 20:09:00,
2013-07-18 13:14:00,72.8,56.7,30.12,NE,36,3.5,3.5,57,0.00,CLR,,0.00,WeatherDisplay:10.37,2013-07-18 20:14:00,
2013-07-18 13:19:00,73.2,57.1,30.12,NE,46,4.6,4.6,57,0.00,CLR,,0.00,WeatherDisplay:10.37,2013-07-18 20:19:00,
2013-07-18 13:24:00,72.6,56.5,30.12,ENE,62,7.0,7.0,57,0.00,CLR,,0.00,WeatherDisplay:10.37,2013-07-18 20:24:00,
2013-07-18 13:29:00,73.0,57.3,30.12,NNE,19,5.8,5.8,58,0.00,CLR,,0.00,WeatherDisplay:10.37,2013-07-18 20:29:00,
2013-07-18 13:34:00,73.3,57.1,30.12,ENE,67,4.0,4.0,57,0.00,CLR,,0.00,WeatherDisplay:10.37,2013-07-18 20:34:00,
2013-07-18 13:39:00,73.7,57.0,30.12,NNW,345,2.3,2.3,56,0.00,CLR,,0.00,WeatherDisplay:10.37,2013-07-18 20:39:00,
2013-07-18 13:44:00,74.3,57.1,30.12,NW,304,4.6,4.6,55,0.00,CLR,,0.00,WeatherDisplay:10.37,2013-07-18 20:44:00,
2013-07-18 13:49:00,74.6,57.4,30.12,NW,316,2.3,2.3,55,0.00,CLR,,0.00,WeatherDisplay:10.37,2013-07-18 20:49:00,
2013-07-18 13:54:00,74.2,57.5,30.12,WSW,257,8.1,8.1,56,0.00,CLR,,0.00,WeatherDisplay:10.37,2013-07-18 20:54:00,
2013-07-18 13:59:00,74.8,57.0,30.11,NE,52,8.0,8.0,54,0.00,CLR,,0.00,WeatherDisplay:10.37,2013-07-18 20:59:00,
2013-07-18 14:04:00,74.3,57.1,30.11,NW,323,3.5,3.5,55,0.00,CLR,,0.00,WeatherDisplay:10.37,2013-07-18 21:04:00,
2013-07-18 14:09:00,75.1,57.3,30.11,NW,305,5.8,5.8,54,0.00,CLR,,0.00,WeatherDisplay:10.37,2013-07-18 21:09:00,
2013-07-18 14:14:00,75.9,57.5,30.11,NE,39,5.8,5.8,53,0.00,CLR,,0.00,WeatherDisplay:10.37,2013-07-18 21:14:00,
2013-07-18 14:19:00,76.2,57.3,30.11,NW,309,6.9,6.9,52,0.00,CLR,,0.00,WeatherDisplay:10.37,2013-07-18 21:19:00,
2013-07-18 14:24:00,76.5,56.5,30.10,NE,36,4.6,4.6,50,0.00,CLR,,0.00,WeatherDisplay:10.37,2013-07-18 21:24:00,
2013-07-18 14:29:00,76.8,56.8,30.10,NNE,20,4.6,4.6,50,0.00,CLR,,0.00,WeatherDisplay:10.37,2013-07-18 21:29:00,
2013-07-18 14:34:00,77.1,55.9,30.10,NNE,26,7.0,7.0,48,0.00,CLR,,0.00,WeatherDisplay:10.37,2013-07-18 21:34:00,
2013-07-18 14:39:00,77.0,56.4,30.10,NW,306,3.5,3.5,49,0.00,CLR,,0.00,WeatherDisplay:10.37,2013-07-18 21:39:00,
2013-07-18 14:44:00,76.9,56.3,30.10,West,265,5.8,5.8,49,0.00,CLR,,0.00,WeatherDisplay:10.37,2013-07-18 21:44:00,
2013-07-18 14:49:00,77.0,55.2,30.09,WNW,290,6.9,6.9,47,0.00,CLR,,0.00,WeatherDisplay:10.37,2013-07-18 21:49:00,
2013-07-18 14:54:00,77.5,56.3,30.09,SSW,205,5.8,5.8,48,0.00,CLR,,0.00,WeatherDisplay:10.37,2013-07-18 21:54:00,
2013-07-18 14:59:00,78.3,54.6,30.09,North,11,8.0,8.0,44,0.00,CLR,,0.00,WeatherDisplay:10.37,2013-07-18 21:59:00,
2013-07-18 15:04:00,78.3,54.6,30.09,North,11,5.8,5.8,44,0.00,CLR,,0.00,WeatherDisplay:10.37,2013-07-18 22:04:00,
2013-07-18 15:09:00,78.5,54.8,30.09,SW,228,4.6,4.6,44,0.00,CLR,,0.00,WeatherDisplay:10.37,2013-07-18 22:09:00,
2013-07-18 15:14:00,78.6,54.2,30.08,SSW,206,5.8,5.8,43,0.00,CLR,,0.00,WeatherDisplay:10.37,2013-07-18 22:14:00,
2013-07-18 15:20:00,79.4,55.0,30.08,North,11,3.5,3.5,43,0.00,CLR,,0.00,WeatherDisplay:10.37,2013-07-18 22:20:00,
2013-07-18 15:25:00,79.1,53.4,30.08,ENE,57,6.0,6.0,41,0.00,CLR,,0.00,WeatherDisplay:10.37,2013-07-18 22:25:00,
2013-07-18 15:30:00,78.8,53.8,30.08,NNE,16,3.5,3.5,42,0.00,CLR,,0.00,WeatherDisplay:10.37,2013-07-18 22:30:00,
2013-07-18 15:35:00,79.1,54.0,30.08,ESE,115,3.5,3.5,42,0.00,CLR,,0.00,WeatherDisplay:10.37,2013-07-18 22:35:00,
2013-07-18 15:40:00,78.9,53.9,30.08,NNE,19,4.0,4.0,42,0.00,CLR,,0.00,WeatherDisplay:10.37,2013-07-18 22:40:00,
2013-07-18 15:45:00,79.3,52.9,30.08,WNW,302,7.0,7.0,40,0.00,CLR,,0.00,WeatherDisplay:10.37,2013-07-18 22:45:00,
2013-07-18 15:50:00,79.2,53.5,30.07,West,262,4.6,4.6,41,0.00,CLR,,0.00,WeatherDisplay:10.37,2013-07-18 22:50:00,
2013-07-18 15:55:00,79.7,52.5,30.07,NW,311,5.0,5.0,39,0.00,CLR,,0.00,WeatherDisplay:10.37,2013-07-18 22:55:00,
2013-07-18 16:00:00,79.7,53.9,30.07,NW,321,5.0,5.0,41,0.00,CLR,,0.00,WeatherDisplay:10.37,2013-07-18 23:00:00,
2013-07-18 16:05:00,79.8,52.6,30.07,NNE,21,5.8,5.8,39,0.00,CLR,,0.00,WeatherDisplay:10.37,2013-07-18 23:05:00,
2013-07-18 16:10:00,80.0,54.2,30.07,NNW,347,3.5,3.5,41,0.00,CLR,,0.00,WeatherDisplay:10.37,2013-07-18 23:10:00,
2013-07-18 16:15:00,80.2,53.7,30.06,SW,215,9.2,9.2,40,0.00,CLR,,0.00,WeatherDisplay:10.37,2013-07-18 23:15:00,
2013-07-18 16:20:00,80.2,53.7,30.06,North,350,4.6,4.6,40,0.00,CLR,,0.00,WeatherDisplay:10.37,2013-07-18 23:20:00,
2013-07-18 16:25:00,80.3,50.1,30.06,North,356,8.1,8.1,35,0.00,CLR,,0.00,WeatherDisplay:10.37,2013-07-18 23:25:00,
2013-07-18 16:30:00,80.1,52.9,30.06,NE,39,4.6,4.6,39,0.00,CLR,,0.00,WeatherDisplay:10.37,2013-07-18 23:30:00,
2013-07-18 16:35:00,80.1,52.9,30.06,NE,49,4.6,4.6,39,0.00,CLR,,0.00,WeatherDisplay:10.37,2013-07-18 23:35:00,
2013-07-18 16:40:00,80.1,54.3,30.06,NNW,330,5.8,5.8,41,0.00,CLR,,0.00,WeatherDisplay:10.37,2013-07-18 23:40:00,
2013-07-18 16:45:00,80.3,53.8,30.06,North,354,5.8,5.8,40,0.00,CLR,,0.00,WeatherDisplay:10.37,2013-07-18 23:45:00,
2013-07-18 16:50:00,80.3,53.1,30.06,WNW,290,11.5,11.5,39,0.00,CLR,,0.00,WeatherDisplay:10.37,2013-07-18 23:50:00,
2013-07-18 16:55:00,80.3,53.1,30.05,NNW,346,5.8,5.8,39,0.00,CLR,,0.00,WeatherDisplay:10.37,2013-07-18 23:55:00,
2013-07-18 17:00:00,80.7,54.1,30.06,NE,40,4.0,4.0,40,0.00,CLR,,0.00,WeatherDisplay:10.37,2013-07-19 00:00:00,
2013-07-18 17:05:00,80.7,53.4,30.05,NW,313,4.6,4.6,39,0.00,CLR,,0.00,WeatherDisplay:10.37,2013-07-19 00:05:00,
2013-07-18 17:10:00,80.7,54.1,30.05,NNE,16,4.6,4.6,40,0.00,CLR,,0.00,WeatherDisplay:10.37,2013-07-19 00:10:00,
2013-07-18 17:15:00,80.9,53.6,30.05,WNW,300,3.5,3.5,39,0.00,CLR,,0.00,WeatherDisplay:10.37,2013-07-19 00:15:00,
2013-07-18 17:20:00,80.8,54.2,30.05,WSW,245,4.6,4.6,40,0.00,CLR,,0.00,WeatherDisplay:10.37,2013-07-19 00:20:00,
2013-07-18 17:25:00,80.8,54.2,30.05,SSW,204,3.5,3.5,40,0.00,CLR,,0.00,WeatherDisplay:10.37,2013-07-19 00:25:00,
2013-07-18 17:30:00,80.8,53.5,30.05,North,359,5.8,5.8,39,0.00,CLR,,0.00,WeatherDisplay:10.37,2013-07-19 00:30:00,
2013-07-18 17:35:00,80.6,54.7,30.05,NNE,32,5.8,5.8,41,0.00,CLR,,0.00,WeatherDisplay:10.37,2013-07-19 00:35:00,
2013-07-18 17:40:00,80.9,55.0,30.04,NW,311,3.5,3.5,41,0.00,CLR,,0.00,WeatherDisplay:10.37,2013-07-19 00:40:00,
2013-07-18 17:45:00,81.1,54.5,30.04,NE,40,9.2,9.2,40,0.00,CLR,,0.00,WeatherDisplay:10.37,2013-07-19 00:45:00,
2013-07-18 17:50:00,81.0,55.1,30.04,North,4,3.5,3.5,41,0.00,CLR,,0.00,WeatherDisplay:10.37,2013-07-19 00:50:00,
2013-07-18 17:55:00,81.3,55.3,30.04,ESE,118,5.0,5.0,41,0.00,CLR,,0.00,WeatherDisplay:10.37,2013-07-19 00:55:00,
2013-07-18 18:00:00,80.9,55.0,30.04,West,281,9.2,9.2,41,0.00,CLR,,0.00,WeatherDisplay:10.37,2013-07-19 01:00:00,
2013-07-18 18:05:00,80.8,55.6,30.04,NNW,328,4.6,4.6,42,0.00,CLR,,0.00,WeatherDisplay:10.37,2013-07-19 01:05:00,
2013-07-18 18:10:00,81.1,55.8,30.04,NNE,15,6.9,6.9,42,0.00,CLR,,0.00,WeatherDisplay:10.37,2013-07-19 01:10:00,
2013-07-18 18:15:00,80.8,55.6,30.03,North,11,4.6,4.6,42,0.00,CLR,,0.00,WeatherDisplay:10.37,2013-07-19 01:15:00,
2013-07-18 18:20:00,80.6,56.0,30.04,SW,225,6.9,6.9,43,0.00,CLR,,0.00,WeatherDisplay:10.37,2013-07-19 01:20:00,
2013-07-18 18:25:00,80.6,56.7,30.03,NNW,333,5.8,5.8,44,0.00,CLR,,0.00,WeatherDisplay:10.37,2013-07-19 01:25:00,
2013-07-18 18:30:00,80.4,57.1,30.03,NE,46,4.6,4.6,45,0.00,CLR,,0.00,WeatherDisplay:10.37,2013-07-19 01:30:00,
2013-07-18 18:35:00,80.0,58.0,30.03,NNE,13,10.4,10.4,47,0.00,CLR,,0.00,WeatherDisplay:10.37,2013-07-19 01:35:00,
2013-07-18 18:40:00,79.6,58.8,30.03,NNW,330,6.9,6.9,49,0.00,CLR,,0.00,WeatherDisplay:10.37,2013-07-19 01:40:00,
2013-07-18 18:45:00,79.3,58.5,30.03,North,11,6.9,6.9,49,0.00,CLR,,0.00,WeatherDisplay:10.37,2013-07-19 01:45:00,
2013-07-18 18:50:00,79.1,58.9,30.03,North,357,5.8,5.8,50,0.00,CLR,,0.00,WeatherDisplay:10.37,2013-07-19 01:50:00,
2013-07-18 18:55:00,78.9,58.7,30.03,WSW,256,6.9,6.9,50,0.00,CLR,,0.00,WeatherDisplay:10.37,2013-07-19 01:55:00,
2013-07-18 19:00:00,78.9,58.7,30.03,North,352,3.5,3.5,50,0.00,CLR,,0.00,WeatherDisplay:10.37,2013-07-19 02:00:00,
2013-07-18 19:05:00,79.2,59.0,30.03,NNE,19,1.2,1.2,50,0.00,CLR,,0.00,WeatherDisplay:10.37,2013-07-19 02:05:00,
2013-07-18 19:10:00,79.4,59.1,30.03,ESE,102,3.5,3.5,50,0.00,CLR,,0.00,WeatherDisplay:10.37,2013-07-19 02:10:00,
2013-07-18 19:15:00,79.0,58.8,30.03,North,5,11.5,11.5,50,0.00,CLR,,0.00,WeatherDisplay:10.37,2013-07-19 02:15:00,
2013-07-18 19:20:00,78.6,59.0,30.03,NE,51,8.1,8.1,51,0.00,CLR,,0.00,WeatherDisplay:10.37,2013-07-19 02:20:00,
2013-07-18 19:25:00,78.3,59.2,30.03,NNE,27,4.0,4.0,52,0.00,CLR,,0.00,WeatherDisplay:10.37,2013-07-19 02:25:00,
2013-07-18 19:30:00,77.9,58.9,30.03,NE,41,5.0,5.0,52,0.00,CLR,,0.00,WeatherDisplay:10.37,2013-07-19 02:30:00,
2013-07-18 19:35:00,77.6,58.6,30.03,NW,310,3.5,3.5,52,0.00,CLR,,0.00,WeatherDisplay:10.37,2013-07-19 02:35:00,
2013-07-18 19:40:00,77.4,58.4,30.03,WSW,255,11.5,11.5,52,0.00,CLR,,0.00,WeatherDisplay:10.37,2013-07-19 02:40:00,
2013-07-18 19:45:00,77.2,58.2,30.03,NNW,327,4.6,4.6,52,0.00,CLR,,0.00,WeatherDisplay:10.37,2013-07-19 02:45:00,
2013-07-18 19:50:00,77.0,58.6,30.03,ENE,60,3.5,3.5,53,0.00,CLR,,0.00,WeatherDisplay:10.37,2013-07-19 02:50:00,
2013-07-18 19:55:00,76.8,58.4,30.03,NNW,327,6.9,6.9,53,0.00,CLR,,0.00,WeatherDisplay:10.37,2013-07-19 02:55:00,
2013-07-18 20:00:00,76.6,58.7,30.03,North,6,4.6,4.6,54,0.00,CLR,,0.00,WeatherDisplay:10.37,2013-07-19 03:00:00,
2013-07-18 20:05:00,76.3,58.9,30.03,NW,323,4.6,4.6,55,0.00,CLR,,0.00,WeatherDisplay:10.37,2013-07-19 03:05:00,
2013-07-18 20:10:00,75.9,59.6,30.04,North,352,5.8,5.8,57,0.00,CLR,,0.00,WeatherDisplay:10.37,2013-07-19 03:10:00,
2013-07-18 20:15:00,75.4,59.6,30.04,North,359,5.8,5.8,58,0.00,CLR,,0.00,WeatherDisplay:10.37,2013-07-19 03:15:00,
2013-07-18 20:20:00,74.9,59.6,30.04,NE,37,8.1,8.1,59,0.00,CLR,,0.00,WeatherDisplay:10.37,2013-07-19 03:20:00,
2013-07-18 20:25:00,74.6,59.8,30.04,NNW,331,2.0,2.0,60,0.00,CLR,,0.00,WeatherDisplay:10.37,2013-07-19 03:25:00,
2013-07-18 20:30:00,74.2,59.4,30.04,SW,233,8.1,8.1,60,0.00,CLR,,0.00,WeatherDisplay:10.37,2013-07-19 03:30:00,
2013-07-18 20:35:00,73.9,59.6,30.04,WNW,296,11.5,11.5,61,0.00,CLR,,0.00,WeatherDisplay:10.37,2013-07-19 03:35:00,
2013-07-18 20:40:00,73.5,59.7,30.04,NNE,32,10.4,10.4,62,0.00,CLR,,0.00,WeatherDisplay:10.37,2013-07-19 03:40:00,
2013-07-18 20:45:00,73.3,59.5,30.05,West,280,4.6,4.6,62,0.00,CLR,,0.00,WeatherDisplay:10.37,2013-07-19 03:45:00,
2013-07-18 20:50:00,73.0,59.7,30.04,NE,36,2.3,2.3,63,0.00,CLR,,0.00,WeatherDisplay:10.37,2013-07-19 03:50:00,
2013-07-18 20:55:00,72.8,59.5,30.05,NW,312,3.5,3.5,63,0.00,CLR,,0.00,WeatherDisplay:10.37,2013-07-19 03:55:00,
2013-07-18 21:00:00,72.6,59.7,30.05,WNW,290,1.2,1.2,64,0.00,CLR,,0.00,WeatherDisplay:10.37,2013-07-19 04:00:00,
2013-07-18 21:01:00,72.6,59.7,30.05,WNW,290,1.2,1.2,64,0.00,CLR,,0.00,WeatherDisplay:10.37,2013-07-19 04:01:00,
2013-07-18 21:06:00,72.3,59.4,30.05,NW,311,4.6,4.6,64,0.00,CLR,,0.00,WeatherDisplay:10.37,2013-07-19 04:06:00,
2013-07-18 21:11:00,72.2,59.8,30.05,WSW,253,3.5,3.5,65,0.00,CLR,,0.00,WeatherDisplay:10.37,2013-07-19 04:11:00,
2013-07-18 21:16:00,72.0,59.6,30.05,WNW,300,1.2,1.2,65,0.00,CLR,,0.00,WeatherDisplay:10.37,2013-07-19 04:16:00,
2013-07-18 21:22:00,71.8,59.4,30.05,NW,314,2.3,2.3,65,0.00,CLR,,0.00,WeatherDisplay:10.37,2013-07-19 04:22:00,
2013-07-18 21:27:00,71.6,59.6,30.06,WNW,285,3.5,3.5,66,0.00,CLR,,0.00,WeatherDisplay:10.37,2013-07-19 04:27:00,
2013-07-18 21:32:00,71.4,59.4,30.06,NNW,328,3.5,3.5,66,0.00,CLR,,0.00,WeatherDisplay:10.37,2013-07-19 04:32:00,
2013-07-18 21:37:00,71.4,59.4,30.06,NW,308,3.5,3.5,66,0.00,CLR,,0.00,WeatherDisplay:10.37,2013-07-19 04:37:00,
2013-07-18 21:42:00,71.2,59.7,30.06,NNW,346,2.3,2.3,67,0.00,CLR,,0.00,WeatherDisplay:10.37,2013-07-19 04:42:00,
2013-07-18 21:47:00,71.1,59.6,30.06,ENE,59,1.0,1.0,67,0.00,CLR,,0.00,WeatherDisplay:10.37,2013-07-19 04:47:00,
2013-07-18 21:52:00,70.9,59.4,30.06,NNE,23,2.3,2.3,67,0.00,CLR,,0.00,WeatherDisplay:10.37,2013-07-19 04:52:00,
2013-07-18 21:57:00,70.8,59.3,30.06,NE,37,2.3,2.3,67,0.00,CLR,,0.00,WeatherDisplay:10.37,2013-07-19 04:57:00,
2013-07-18 22:02:00,70.7,59.6,30.06,ENE,66,2.3,2.3,68,0.00,CLR,,0.00,WeatherDisplay:10.37,2013-07-19 05:02:00,
2013-07-18 22:07:00,70.5,59.4,30.07,North,360,4.6,4.6,68,0.00,CLR,,0.00,WeatherDisplay:10.37,2013-07-19 05:07:00,
2013-07-18 22:12:00,70.4,59.3,30.07,WNW,301,2.0,2.0,68,0.00,CLR,,0.00,WeatherDisplay:10.37,2013-07-19 05:12:00,
2013-07-18 22:17:00,70.2,59.1,30.07,East,96,4.6,4.6,68,0.00,CLR,,0.00,WeatherDisplay:10.37,2013-07-19 05:17:00,
2013-07-18 22:22:00,70.1,59.5,30.07,NE,38,6.0,6.0,69,0.00,CLR,,0.00,WeatherDisplay:10.37,2013-07-19 05:22:00,
2013-07-18 22:27:00,70.0,59.4,30.07,NNW,339,0.0,0.0,69,0.00,CLR,,0.00,WeatherDisplay:10.37,2013-07-19 05:27:00,
2013-07-18 22:32:00,69.7,59.1,30.06,NE,42,2.3,2.3,69,0.00,CLR,,0.00,WeatherDisplay:10.37,2013-07-19 05:32:00,
2013-07-18 22:37:00,69.5,59.3,30.07,NE,34,0.0,0.0,70,0.00,CLR,,0.00,WeatherDisplay:10.37,2013-07-19 05:37:00,
2013-07-18 22:42:00,69.2,59.0,30.07,NW,316,0.0,0.0,70,0.00,CLR,,0.00,WeatherDisplay:10.37,2013-07-19 05:42:00,
2013-07-18 22:47:00,68.8,59.0,30.07,NW,316,0.0,0.0,71,0.00,CLR,,0.00,WeatherDisplay:10.37,2013-07-19 05:47:00,
2013-07-18 22:52:00,68.4,59.0,30.07,North,358,0.0,0.0,72,0.00,CLR,,0.00,WeatherDisplay:10.37,2013-07-19 05:52:00,
2013-07-18 22:57:00,68.2,58.8,30.07,NE,53,0.0,0.0,72,0.00,CLR,,0.00,WeatherDisplay:10.37,2013-07-19 05:57:00,
2013-07-18 23:02:00,68.0,59.0,30.07,NNW,332,1.2,1.2,73,0.00,CLR,,0.00,WeatherDisplay:10.37,2013-07-19 06:02:00,
2013-07-18 23:07:00,67.7,58.7,30.07,NNW,338,0.0,0.0,73,0.00,CLR,,0.00,WeatherDisplay:10.37,2013-07-19 06:07:00,
2013-07-18 23:12:00,67.5,58.9,30.07,NNW,327,1.2,1.2,74,0.00,CLR,,0.00,WeatherDisplay:10.37,2013-07-19 06:12:00,
2013-07-18 23:17:00,67.3,58.7,30.07,NE,37,0.0,0.0,74,0.00,CLR,,0.00,WeatherDisplay:10.37,2013-07-19 06:17:00,
2013-07-18 23:22:00,67.0,58.4,30.07,NNW,340,0.0,0.0,74,0.00,CLR,,0.00,WeatherDisplay:10.37,2013-07-19 06:22:00,
2013-07-18 23:27:00,66.8,58.6,30.07,East,80,0.0,0.0,75,0.00,CLR,,0.00,WeatherDisplay:10.37,2013-07-19 06:27:00,
2013-07-18 23:32:00,66.6,58.4,30.08,NW,316,2.3,2.3,75,0.00,CLR,,0.00,WeatherDisplay:10.37,2013-07-19 06:32:00,
2013-07-18 23:37:00,66.4,58.2,30.08,NE,42,1.2,1.2,75,0.00,CLR,,0.00,WeatherDisplay:10.37,2013-07-19 06:37:00,
2013-07-18 23:42:00,66.3,58.1,30.08,NW,316,1.2,1.2,75,0.00,CLR,,0.00,WeatherDisplay:10.37,2013-07-19 06:42:00,
2013-07-18 23:47:00,66.1,57.9,30.08,NE,37,0.0,0.0,75,0.00,CLR,,0.00,WeatherDisplay:10.37,2013-07-19 06:47:00,
2013-07-18 23:52:00,65.9,58.1,30.08,WNW,302,0.0,0.0,76,0.00,CLR,,0.00,WeatherDisplay:10.37,2013-07-19 06:52:00,
2013-07-18 23:57:00,65.6,57.8,30.08,NW,308,2.0,2.0,76,0.00,CLR,,0.00,WeatherDisplay:10.37,2013-07-19 06:57:00,